La Vergne, TN

9:15 AM CST on February 21, 2017 (GMT -0600)
Smyrna

Weather History for KMQY - January, 2012

Change the Weather History Date:

Friday, January 27, 2012

  Actual Average Record
Temperature  
Mean Temperature 42 °F -  
Max Temperature 52 °F 45 °F 66 °F (1999)
Min Temperature 32 °F 31 °F 10 °F (2003)
Degree Days  
Heating Degree Days 23    
Moisture  
Dew Point 36 °F    
Average Humidity 82    
Maximum Humidity 100    
Minimum Humidity 54    
Precipitation  
Precipitation 0.00 in - - ()
Sea Level Pressure  
Sea Level Pressure 29.99 in    
Wind  
Wind Speed 7 mph (WNW)    
Max Wind Speed 14 mph    
Max Gust Speed -    
Visibility 8 miles    
Events Fog , Rain    
Averages and records for this station are not official NWS values.
T = Trace of Precipitation, MM = Missing Value Source: NWS Daily Summary

Daily Weather History Graph

Daily Weather History Graph

Search for Another Location

Airport or City:

Trip Planner

Search our weather history database for the weather conditions in past years. The results will help you decide how hot, cold, wet, or windy it might be!

Date:

Astronomy

Jan. 27, 2012 Rise Set
Actual Time 6:50 AM CST 5:07 PM CST
Civil Twilight 6:23 AM CST 5:34 PM CST
Nautical Twilight 5:52 AM CST 6:05 PM CST
Astronomical Twilight 5:22 AM CST 6:35 PM CST
Moon 8:55 AM CST (1/27) 9:46 PM CST (1/27)
Length of Visible Light 11h 11m
Length of Day
10h 16m
Waxing Crescent, 20% of the Moon is Illuminated
Jan 27
Waxing Crescent
Jan 30
First Quarter
Feb 7
Full
Feb 14
Last Quarter
Feb 21
New

Hourly Weather History & Observations

Time (CST) Temp. Windchill Dew Point Humidity Pressure Visibility Wind Dir Wind Speed Gust Speed Precip Events Conditions
12:38 AM 44.6 °F 38.1 °F 42.8 °F 93% 29.78 in 10.0 mi NW 13.8 mph - N/A   Overcast
12:56 AM 43.9 °F 37.9 °F 41.0 °F 90% 29.78 in 10.0 mi NNW 11.5 mph - N/A   Overcast
1:25 AM 42.8 °F 37.5 °F 39.2 °F 87% 29.80 in 10.0 mi NW 9.2 mph - 0.00 in Rain Light Rain
1:56 AM 43.0 °F 37.2 °F 39.9 °F 89% 29.81 in 10.0 mi WNW 10.4 mph - 0.00 in   Overcast
3:34 AM 42.8 °F 38.0 °F 39.2 °F 87% 29.86 in 10.0 mi NNW 8.1 mph - N/A   Overcast
3:56 AM 41.9 °F 38.2 °F 39.9 °F 93% 29.87 in 3.0 mi WNW 5.8 mph - N/A   Overcast
4:22 AM 42.8 °F 37.5 °F 39.2 °F 87% 29.88 in 6.0 mi WNW 9.2 mph - N/A   Overcast
4:56 AM 41.0 °F 34.7 °F 38.8 °F 92% 29.89 in 10.0 mi WNW 10.4 mph - N/A   Overcast
5:56 AM 41.9 °F 36.3 °F 36.9 °F 82% 29.93 in 10.0 mi NW 9.2 mph - N/A   Overcast
6:56 AM 41.9 °F 36.3 °F 36.0 °F 79% 29.96 in 10.0 mi NNW 9.2 mph - N/A   Overcast
7:56 AM 41.9 °F 35.9 °F 36.0 °F 79% 29.98 in 6.0 mi NW 10.4 mph - N/A   Haze
8:56 AM 43.9 °F 38.8 °F 36.0 °F 74% 30.00 in 10.0 mi NW 9.2 mph - N/A   Overcast
9:56 AM 43.9 °F 40.5 °F 34.9 °F 71% 30.01 in 10.0 mi NW 5.8 mph - N/A   Overcast
10:56 AM 45.9 °F 42.9 °F 34.9 °F 66% 30.03 in 10.0 mi WNW 5.8 mph - N/A   Overcast
11:56 AM 46.9 °F - 36.0 °F 66% 30.03 in 10.0 mi WNW 6.9 mph - N/A   Overcast
1:36 PM 51.8 °F - 37.4 °F 58% 30.04 in 10.0 mi West 9.2 mph - N/A   Scattered Clouds
1:56 PM 52.0 °F - 36.9 °F 56% 30.04 in 10.0 mi WNW 4.6 mph - N/A   Mostly Cloudy
2:23 PM 51.8 °F - 37.4 °F 58% 30.05 in 10.0 mi WNW 6.9 mph - N/A   Scattered Clouds
2:56 PM 52.0 °F - 36.0 °F 54% 30.05 in 10.0 mi Calm Calm - N/A   Overcast
3:56 PM 47.8 °F - 36.0 °F 63% 30.07 in 10.0 mi Calm Calm - N/A   Partly Cloudy
4:56 PM 45.9 °F - 34.9 °F 66% 30.07 in 10.0 mi Calm Calm - N/A   Clear
5:56 PM 43.0 °F 40.3 °F 36.0 °F 76% 30.07 in 10.0 mi ESE 4.6 mph - N/A   Clear
6:56 PM 38.8 °F - 34.9 °F 86% 30.08 in 10.0 mi Calm Calm - N/A   Clear
8:56 PM 34.9 °F - 32.9 °F 92% 30.05 in 10.0 mi Calm Calm - N/A   Clear
9:56 PM 36.0 °F - 34.9 °F 96% 30.05 in 7.0 mi Calm Calm - N/A   Clear
10:03 PM 35.6 °F - 33.8 °F 93% 30.06 in 1.8 mi Calm Calm - N/A   Clear
10:06 PM 33.8 °F - 33.8 °F 100% 30.06 in 1.0 mi Calm Calm - N/A   Clear
10:13 PM 35.6 °F - 33.8 °F 93% 30.06 in 1.5 mi Calm Calm - N/A   Clear
10:56 PM 32.9 °F - 32.9 °F 100% 30.05 in 0.5 mi Calm Calm - N/A Fog Fog
11:04 PM 33.8 °F - 33.8 °F 100% 30.06 in 1.0 mi Calm Calm - N/A   Clear
11:07 PM 33.8 °F - 33.8 °F 100% 30.06 in 2.0 mi Calm Calm - N/A   Clear
11:15 PM 33.8 °F - 32.0 °F 93% 30.06 in 4.0 mi Calm Calm - N/A   Clear
11:56 PM 36.0 °F 32.1 °F 34.9 °F 96% 30.04 in 8.0 mi South 4.6 mph - N/A   Clear